721  
SXUS52 KTAE 250506  
OSOTAE  
OSOTAE  
NORTH FLORIDA/SOUTH ALABAMA/SOUTHWEST GEORGIA WEATHER ROUNDUP  
NATIONAL WEATHER SERVICE TALLAHASSEE FLORIDA  
100 AM EDT FRI MAY 25 2018  
 
NOTE: "FAIR" INDICATES FEW OR NO CLOUDS BELOW 12,000 FEET WITH NO  
SIGNIFICANT WEATHER AND/OR OBSTRUCTIONS TO VISIBILITY.  
 
!FLZ017-115-028-034-025-250600   
..NORTH FLORIDA
 
 
 
CITY SKY/WX TMP DP RH WIND PRES REMARKS  
TALLAHASSEE FAIR 74 72 93 E6 30.07R  
APALACHICOLA FAIR 71 70 96 CALM 30.05F  
PERRY FAIR 75 69 80 CALM 30.08F  
CROSS CITY FAIR 73 73 100 N5 30.07F  
JACKSONVILLE MOCLDY 75 72 90 CALM 30.08S  

 
 
!FLZ112-006-005-002-011-250600   
..FLORIDA PANHANDLE
 
 
 
CITY SKY/WX TMP DP RH WIND PRES REMARKS  
MARIANNA FAIR 72 71 97 SW3 30.05F  
BONIFAY FAIR 71 70 96 CALM 30.06F  
PANAMA CITY NW FAIR 74 72 93 CALM 30.04F  
TYNDALL AFB FAIR 74 72 94 CALM 30.05S  
TYND DRONE APT FAIR 72 70 92 CALM 30.05F  
DE FUNIAK SPR FAIR 70 68 95 N3 30.06F  
EGLIN AFB PTCLDY 71 68 90 N3 30.04F  
DESTIN FAIR 75 73 93 CALM 30.04F  
HURLBURT NOT AVBL  
CRESTVIEW FAIR 71 69 93 CALM 30.06F  
PENSACOLA FAIR 74 70 87 CALM 30.04F  

 
 
!ALZ063-066-250600   
..SOUTH ALABAMA
 
 
 
CITY SKY/WX TMP DP RH WIND PRES REMARKS  
DOTHAN MOCLDY 73 70 90 CALM 30.09F  
OZARK CAIRNS FAIR 72 71 97 CALM 30.06S  
FT RUCKER HELI MOCLDY 70 70 98 CALM 30.06S  
RUCKER HELI 3 FAIR 71 70 96 CALM 30.05F  
RUCKER HELI 2 MOCLDY 70 70 99 CALM 30.05F  
FLORALA APT FAIR 69 67 93 CALM 30.07F  
ANDALUSIA FAIR 73 69 87 CALM 30.06F  
TROY FAIR 70 69 97 CALM 30.07F  
EUFALA FAIR 74 72 93 CALM 30.05F  
MOBILE FAIR 72 71 97 CALM 30.05F  

 
 
!GAZ120>161-250600   
..SOUTHWEST AND SOUTH CENTRAL GEORGIA
 
 
 
CITY SKY/WX TMP DP RH WIND PRES REMARKS  
THOMASVILLE FAIR N/A N/A N/A CALM 30.09F  
BAINBRIDGE FAIR 72 72 100 CALM 30.08R  
MOODY AFB RAIN 71 71 100 SE3 30.08F FOG  
VALDOSTA LGT RAIN 71 70 96 E5 30.08F  
MOULTRIE RAIN 72 70 94 E3 30.08F  
BLAKELY DRIZZLE 72 70 94 CALM 30.07F  
ALBANY LGT RAIN 72 71 97 S6 30.08F  
TIFTON CLOUDY N/A N/A N/A S6 30.08  
FITZGERALD MOCLDY 73 72 98 S8 30.10F  
CORDELE CLOUDY 73 70 91 S5 30.09S  
AMERICUS CLOUDY 72 66 83 S6 30.08F  
HOMERVILLE LGT RAIN 70 70 100 CALM 30.10F  

 
 
!GMZ750-755-770-775-250600   
..COASTAL AND BUOY OBS
 
 
 
STATION/POSITION TIME TEMP WIND PRES VSBY WAVE  
AIR SEA DIR/SP/G HT/PER  
(UTC) (F) (DEG/KT/KT) (MB) (MI) (FT/S)  
KEATON BEACH 0500 75 60/ 5/ 6 1018.5F  
CEDAR KEY 0400 77 130/ 8/ 9 1018.4F  
C TOWER 0500 78 340/ 3/ 4 1018.1R  
APALACHICOLA BUO NOT AVBL  
PANAMA CITY BUOY 0450 78 80 290/ 2/ 2 1017.5S 3/ 8  
MOBILE BUOY 0450 84 140/ 4/ 6 1017.4F 2/ 7  
ORANGE BCH AL BU 0450 79 160/ 6/ 8 1017.2F 2/ 7  

 
 
 
CLICK HERE TO GO TO PREVIOUS BULLETINS.

The Nexlab FL Page
The Nexlab GA Page
The Nexlab AL Page Main Text Page